EW2348 Weather Reports


Display with metric or nautical units.
time (UTC)temp
F
wind
direction
speed
MPH
gust
MPH
rain 1hr
in
rain 24hr
in
rain mn
in
humidity
%
barometer
mb
20160726043302 76 105 0.0 3.0 0.00 0.86 0.00 99 1010.9
20160726043003 76 90 0.0 3.0 0.00 0.86 0.00 99 1010.7
20160726042803 76 90 1.0 3.0 0.00 0.86 0.00 99 1010.7
20160726042702 76 90 2.0 3.0 0.00 0.86 0.00 99 1010.6
20160726042603 76 90 1.0 2.0 0.00 0.86 0.00 99 1010.9
20160726042203 76 0 0.0 0.0 0.00 0.86 0.00 99 1011.1
20160726042003 76 0 0.0 0.0 0.00 0.86 0.00 99 1010.7
20160726041903 76 0 0.0 0.0 0.00 0.86 0.00 99 1010.7
20160726041803 76 0 0.0 0.0 0.00 0.86 0.00 99 1010.8
20160726041503 76 135 0.0 3.0 0.00 0.86 0.00 99 1010.7
20160726041403 76 135 0.0 3.0 0.00 0.86 0.00 99 1010.8
20160726041102 76 135 0.0 3.0 0.00 0.86 0.00 99 1010.9
20160726040703 76 135 0.0 3.0 0.00 0.86 0.00 99 1010.9
20160726040603 76 135 0.0 3.0 0.00 0.86 0.00 99 1010.8
20160726040403 76 135 0.0 3.0 0.00 0.86 0.86 99 1011.0
20160726035803 76 90 0.0 3.0 0.00 0.86 0.86 99 1010.8
20160726035503 76 90 0.0 3.0 0.00 0.86 0.86 99 1010.8
20160726035403 76 90 0.0 3.0 0.00 0.86 0.86 99 1010.8
20160726035203 76 90 0.0 3.0 0.00 0.86 0.86 99 1010.8
20160726034903 76 90 1.0 3.0 0.00 0.86 0.86 99 1010.6
20160726034703 76 90 0.0 1.0 0.00 0.86 0.86 99 1011.0
20160726034103 76 0 0.0 0.0 0.00 0.86 0.86 99 1010.7
20160726034006 76 0 0.0 0.0 0.00 0.86 0.86 99 1010.7
20160726033803 76 0 0.0 0.0 0.00 0.86 0.86 99 1010.7
20160726033603 77 0 0.0 0.0 0.00 0.86 0.86 99 1010.9
20160726033502 77 0 0.0 0.0 0.00 0.86 0.86 99 1010.7
20160726033402 77 0 0.0 0.0 0.00 0.86 0.86 99 1010.8
20160726033103 76 0 0.0 0.0 0.00 0.86 0.86 99 1010.7
20160726032202 77 0 0.0 0.0 0.00 0.86 0.86 97 1010.7
20160726032003 77 0 0.0 0.0 0.00 0.86 0.86 97 1010.7
20160726031903 77 0 0.0 0.0 0.00 0.86 0.86 98 1010.8
20160726031803 77 0 0.0 0.0 0.00 0.86 0.86 98 1010.8
20160726031702 77 0 0.0 0.0 0.00 0.86 0.86 98 1010.8
20160726031603 77 0 0.0 0.0 0.00 0.86 0.86 98 1010.7
20160726031503 77 0 0.0 0.0 0.00 0.86 0.86 99 1010.7
20160726031403 77 0 0.0 0.0 0.00 0.86 0.86 99 1010.6
20160726031303 77 0 0.0 0.0 0.00 0.86 0.86 99 1010.8
20160726031203 77 0 0.0 0.0 0.00 0.86 0.86 99 1010.8
20160726030702 76 0 0.0 0.0 0.00 0.86 0.86 99 1010.8
20160726030603 77 0 0.0 0.0 0.00 0.86 0.86 99 1010.9
20160726030503 77 0 0.0 0.0 0.00 0.86 0.86 99 1011.0
20160726030402 77 0 0.0 0.0 0.00 0.86 0.86 99 1011.0
20160726030302 77 0 0.0 0.0 0.00 0.86 0.86 99 1011.1
20160726030103 77 0 0.0 0.0 0.00 0.86 0.86 98 1011.1
20160726030003 77 0 0.0 0.0 0.00 0.86 0.86 98 1011.0
20160726025902 77 0 0.0 0.0 0.00 0.86 0.86 98 1010.8
20160726025702 77 90 0.0 1.0 0.00 0.86 0.86 97 1010.9
20160726025406 78 90 0.0 1.0 0.00 0.86 0.86 97 1011.0
20160726025306 78 90 0.0 1.0 0.00 0.86 0.86 96 1010.7
20160726024702 77 115 0.0 2.0 0.00 0.86 0.86 96 1011.0
20160726024602 78 107 0.0 2.0 0.00 0.86 0.86 96 1010.9
20160726024503 78 101 0.0 2.0 0.00 0.86 0.86 96 1010.8
20160726024303 78 101 0.0 2.0 0.00 0.86 0.86 97 1010.7
20160726024102 78 95 1.0 2.0 0.00 0.86 0.86 97 1010.6
20160726024002 78 93 1.0 2.0 0.00 0.86 0.86 97 1010.9
20160726023703 77 107 0.0 2.0 0.00 0.86 0.86 97 1010.8
20160726023603 77 110 1.0 2.0 0.00 0.86 0.86 97 1010.7
20160726023503 77 112 1.0 3.0 0.00 0.86 0.86 97 1010.9
20160726023403 77 114 0.0 3.0 0.00 0.86 0.86 97 1010.7
20160726023303 77 112 0.0 3.0 0.00 0.86 0.86 97 1010.9
20160726023203 77 116 1.0 3.0 0.00 0.86 0.86 97 1010.7
20160726023102 77 115 0.0 3.0 0.00 0.86 0.86 97 1010.7
20160726022803 78 103 0.0 3.0 0.00 0.86 0.86 97 1010.8
20160726022703 78 102 0.0 3.0 0.00 0.86 0.86 97 1010.9
20160726022603 78 101 0.0 3.0 0.00 0.86 0.86 98 1010.9
20160726022502 77 102 1.0 3.0 0.00 0.86 0.86 98 1010.8
20160726022303 77 100 2.0 3.0 0.00 0.86 0.86 98 1010.8
20160726022203 77 94 1.0 3.0 0.00 0.86 0.86 98 1010.9
20160726022002 77 91 2.0 3.0 0.00 0.86 0.86 98 1010.8
20160726021902 77 91 2.0 3.0 0.00 0.86 0.86 98 1010.8
20160726021703 77 94 2.0 3.0 0.00 0.86 0.86 98 1010.7
20160726021503 77 135 0.0 1.0 0.00 0.86 0.86 98 1010.7
20160726021403 77 135 0.0 1.0 0.00 0.86 0.86 98 1010.8
20160726021302 77 0 0.0 0.0 0.00 0.86 0.86 98 1010.8
20160726021203 77 0 0.0 0.0 0.00 0.86 0.86 98 1010.7
20160726020803 77 0 0.0 0.0 0.00 0.86 0.86 98 1010.8
20160726020603 78 0 0.0 0.0 0.00 0.86 0.86 97 1010.9
20160726020503 78 0 0.0 0.0 0.00 0.86 0.86 97 1010.8
20160726020303 78 0 0.0 0.0 0.00 0.86 0.86 97 1010.8
20160726020002 78 0 0.0 0.0 0.00 0.86 0.86 97 1011.0
20160726015502 78 0 0.0 0.0 0.00 0.86 0.86 97 1010.7
20160726015402 78 0 0.0 0.0 0.00 0.86 0.86 97 1010.7
20160726015303 78 0 0.0 0.0 0.00 0.86 0.86 98 1010.9
20160726015103 78 0 0.0 0.0 0.00 0.86 0.86 97 1010.6
20160726015003 78 0 0.0 0.0 0.00 0.86 0.86 97 1010.7
20160726014603 78 0 0.0 0.0 0.00 0.86 0.86 97 1010.7
20160726014503 78 0 0.0 0.0 0.00 0.86 0.86 96 1010.7
20160726014402 78 0 0.0 0.0 0.00 0.86 0.86 96 1010.4
20160726014302 78 0 0.0 0.0 0.00 0.86 0.86 96 1010.5
20160726014103 78 0 0.0 0.0 0.00 0.86 0.86 96 1010.6
20160726014003 78 0 0.0 0.0 0.00 0.86 0.86 96 1010.6
20160726013902 78 0 0.0 0.0 0.00 0.86 0.86 95 1010.6
20160726013802 78 0 0.0 0.0 0.00 0.86 0.86 95 1010.7
20160726013703 78 0 0.0 0.0 0.00 0.86 0.86 95 1010.6
20160726013503 78 0 0.0 0.0 0.00 0.86 0.86 95 1010.6
20160726013402 79 0 0.0 0.0 0.00 0.86 0.86 94 1010.5
20160726013303 79 0 0.0 0.0 0.00 0.86 0.86 94 1010.7
20160726013203 79 0 0.0 0.0 0.00 0.86 0.86 95 1010.6
20160726013103 79 0 0.0 0.0 0.00 0.86 0.86 94 1010.6
20160726012902 79 0 0.0 0.0 0.00 0.86 0.86 94 1010.5
20160726012803 79 0 0.0 0.0 0.00 0.86 0.86 95 1010.7
20160726012402 79 0 0.0 0.0 0.00 0.86 0.86 94 1010.6
20160726012202 79 90 0.0 1.0 0.00 0.86 0.86 95 1010.6
20160726011802 79 90 0.0 1.0 0.00 0.86 0.86 94 1010.6
20160726011702 79 90 0.0 1.0 0.00 0.86 0.86 95 1010.6
20160726011603 79 90 0.0 1.0 0.00 0.86 0.86 95 1010.6
20160726011503 79 90 0.0 1.0 0.00 0.86 0.86 95 1010.6
20160726011403 79 90 0.0 1.0 0.00 0.86 0.86 95 1010.6
20160726011202 79 90 0.0 1.0 0.00 0.86 0.86 96 1010.7
20160726011103 79 90 1.0 1.0 0.00 0.86 0.86 96 1010.9
20160726011003 79 0 0.0 0.0 0.00 0.86 0.86 97 1010.6
20160726010903 79 0 0.0 0.0 0.00 0.86 0.86 97 1010.6
20160726010702 78 0 0.0 0.0 0.00 0.86 0.86 98 1010.5
20160726010603 78 0 0.0 0.0 0.00 0.86 0.86 98 1010.5
20160726010403 78 135 0.0 2.0 0.00 0.86 0.86 98 1010.8
20160726010303 78 110 0.0 2.0 0.00 0.86 0.86 98 1010.6
20160726010203 78 105 0.0 2.0 0.00 0.86 0.86 98 1010.9
20160726010103 78 105 0.0 2.0 0.00 0.86 0.86 98 1010.7
20160726005902 78 105 0.0 2.0 0.00 0.86 0.86 99 1010.6
20160726005302 78 90 1.0 2.0 0.00 0.86 0.86 99 1010.6
20160726005203 78 90 0.0 1.0 0.00 0.86 0.86 99 1010.7
20160726005103 79 90 0.0 1.0 0.00 0.86 0.86 99 1010.6
20160726004903 78 90 0.0 1.0 0.00 0.86 0.86 99 1010.5
20160726004802 78 90 0.0 1.0 0.00 0.86 0.86 99 1010.5
20160726004702 78 90 0.0 1.0 0.00 0.86 0.86 99 1010.6
20160726004503 78 0 0.0 0.0 0.00 0.86 0.86 99 1010.5
20160726004403 78 0 0.0 0.0 0.00 0.86 0.86 99 1010.4
20160726004103 78 0 0.0 0.0 0.00 0.86 0.86 99 1010.6
20160726003903 78 0 0.0 0.0 0.00 0.86 0.86 99 1010.4
20160726003802 79 0 0.0 0.0 0.00 0.86 0.86 99 1010.4
20160726003702 79 0 0.0 0.0 0.00 0.86 0.86 99 1010.7
20160726003603 79 0 0.0 0.0 0.00 0.86 0.86 99 1010.6
20160726003403 79 0 0.0 0.0 0.00 0.86 0.86 99 1010.6
20160726003202 79 0 0.0 0.0 0.00 0.86 0.86 98 1010.6
20160726003102 79 0 0.0 0.0 0.00 0.86 0.86 98 1010.4
20160726003003 79 0 0.0 0.0 0.00 0.86 0.86 97 1010.4
20160726002803 79 0 0.0 0.0 0.00 0.86 0.86 97 1010.5
20160726002702 79 0 0.0 0.0 0.00 0.86 0.86 97 1010.4
20160726002602 79 0 0.0 0.0 0.00 0.86 0.86 97 1010.5
20160726002503 79 0 0.0 0.0 0.00 0.86 0.86 97 1010.4
20160726002403 79 0 0.0 0.0 0.00 0.86 0.86 96 1010.5
20160726002103 79 0 0.0 0.0 0.00 0.86 0.86 96 1010.3
20160726002003 79 0 0.0 0.0 0.00 0.86 0.86 96 1010.5
20160726001903 79 0 0.0 0.0 0.00 0.86 0.86 96 1010.5
20160726001803 79 0 0.0 0.0 0.00 0.86 0.86 96 1010.4
20160726001702 79 0 0.0 0.0 0.00 0.86 0.86 96 1010.3
20160726001603 79 0 0.0 0.0 0.00 0.86 0.86 96 1010.2
20160726001302 80 0 0.0 0.0 0.00 0.86 0.86 96 1010.5
20160726001202 80 0 0.0 0.0 0.00 0.86 0.86 96 1010.4
20160726001102 80 0 0.0 0.0 0.00 0.86 0.86 96 1010.3
20160726001003 80 0 0.0 0.0 0.00 0.86 0.86 96 1010.3
20160726000803 80 0 0.0 0.0 0.00 0.86 0.86 96 1010.4
20160726000702 80 0 0.0 0.0 0.00 0.86 0.86 95 1010.4
20160726000603 80 0 0.0 0.0 0.00 0.86 0.86 95 1010.4
20160726000503 80 0 0.0 0.0 0.00 0.86 0.86 95 1010.3
20160726000203 80 0 0.0 0.0 0.00 0.86 0.86 95 1010.1
20160726000103 80 0 0.0 0.0 0.00 0.86 0.86 95 1010.3
20160725235903 80 0 0.0 0.0 0.00 0.86 0.86 95 1010.3
20160725235603 80 45 0.0 1.0 0.00 0.86 0.86 95 1010.1
20160725235403 80 45 0.0 1.0 0.00 0.86 0.86 94 1010.2
20160725235203 80 45 0.0 1.0 0.00 0.86 0.86 94 1010.0
20160725235103 80 65 0.0 2.0 0.00 0.86 0.86 94 1010.2
20160725235002 80 69 0.0 2.0 0.00 0.86 0.86 94 1010.2
20160725234703 80 75 1.0 2.0 0.00 0.86 0.86 93 1010.0
20160725234509 81 90 0.0 2.0 0.00 0.86 0.86 92 1010.0
20160725234405 81 90 0.0 2.0 0.00 0.86 0.86 91 1010.0
20160725234203 81 90 1.0 2.0 0.00 0.86 0.86 91 1009.9
20160725234002 81 0 0.0 0.0 0.00 0.86 0.86 91 1010.1
20160725233902 81 0 0.0 0.0 0.00 0.86 0.86 91 1009.9
20160725233802 81 90 0.0 3.0 0.00 0.86 0.86 91 1009.9
20160725233703 81 90 0.0 3.0 0.00 0.86 0.86 91 1010.0
20160725233603 80 90 0.0 3.0 0.00 0.86 0.86 92 1010.0
20160725232903 80 90 0.0 3.0 0.00 0.86 0.86 92 1010.1
20160725232802 80 90 1.0 3.0 0.00 0.86 0.86 93 1009.9
20160725232603 81 0 0.0 0.0 0.00 0.86 0.86 91 1010.0
20160725232503 81 0 0.0 0.0 0.00 0.86 0.86 91 1010.1
20160725232403 81 1 0.0 1.0 0.00 0.86 0.86 91 1010.0
20160725232202 81 1 0.0 1.0 0.00 0.86 0.86 91 1010.2
20160725232102 81 32 0.0 1.0 0.00 0.86 0.86 91 1010.1
20160725232003 81 57 0.0 1.0 0.00 0.86 0.86 92 1010.1
20160725231903 81 91 0.0 3.0 0.00 0.86 0.86 92 1010.1
20160725231803 81 91 0.0 3.0 0.00 0.86 0.86 92 1010.1
20160725231702 81 90 0.0 3.0 0.00 0.86 0.86 92 1010.0
20160725231602 81 90 0.0 4.0 0.00 0.86 0.86 92 1010.1
20160725231502 81 90 0.0 4.0 0.00 0.86 0.86 91 1010.1
20160725230903 80 78 1.0 4.0 0.00 0.86 0.86 93 1010.0
20160725230703 80 65 3.0 4.0 0.00 0.86 0.86 94 1010.2
20160725230503 80 300 2.0 3.0 0.00 0.86 0.86 95 1010.1
20160725230403 80 277 1.0 2.0 0.00 0.86 0.86 95 1009.9
20160725230303 80 269 1.0 2.0 0.00 0.86 0.86 96 1010.0
20160725225902 80 242 0.0 2.0 0.00 0.86 0.86 96 1010.1
20160725225803 81 224 0.0 2.0 0.00 0.86 0.86 95 1010.0
20160725225703 80 201 1.0 2.0 0.00 0.86 0.86 96 1010.1
20160725225603 81 159 1.0 2.0 0.00 0.86 0.86 95 1010.2
20160725224702 81 331 0.0 3.0 0.00 0.86 0.86 96 1010.1
20160725224502 80 332 0.0 3.0 0.00 0.86 0.86 97 1010.0
20160725224203 80 332 0.0 3.0 0.00 0.86 0.86 96 1009.9
20160725224103 79 333 0.0 3.0 0.00 0.86 0.86 96 1010.0
20160725223903 79 334 1.0 3.0 0.00 0.86 0.86 95 1009.9
20160725223803 80 338 1.0 3.0 0.00 0.86 0.86 95 1009.9
20160725223703 80 350 1.0 3.0 0.00 0.86 0.86 94 1010.0
20160725223602 80 23 1.0 3.0 0.00 0.86 0.86 93 1009.8
20160725223502 80 39 3.0 3.0 0.00 0.86 0.86 93 1009.9
20160725223102 82 92 0.0 3.0 0.00 0.86 0.86 91 1009.6
20160725223003 82 98 0.0 3.0 0.00 0.86 0.86 90 1009.7
20160725222702 81 100 1.0 3.0 0.00 0.86 0.86 91 1009.6
20160725222602 81 103 0.0 3.0 0.00 0.86 0.86 91 1009.8
20160725222403 81 108 1.0 4.0 0.00 0.86 0.86 91 1009.9
20160725221203 81 91 1.0 3.0 0.21 0.86 0.86 88 1009.8
20160725221002 81 91 1.0 3.0 0.26 0.86 0.86 86 1009.8
20160725220502 81 119 1.0 6.0 0.47 0.86 0.86 91 1009.7
20160725220303 81 117 1.0 6.0 0.52 0.86 0.86 91 1009.8
20160725220203 81 118 1.0 6.0 0.53 0.86 0.86 91 1009.8
20160725215603 80 104 4.0 5.0 0.79 0.86 0.86 95 1009.8
20160725215503 80 101 4.0 5.0 0.80 0.86 0.86 96 1009.9
20160725215402 80 104 3.0 5.0 0.81 0.86 0.86 97 1009.7
20160725215303 79 105 2.0 5.0 0.81 0.86 0.86 97 1009.8
20160725215203 80 110 3.0 5.0 0.81 0.86 0.86 97 1009.7
20160725214802 80 124 1.0 3.0 0.83 0.86 0.86 97 1009.7
20160725214703 80 126 1.0 3.0 0.83 0.86 0.86 97 1009.7
20160725214603 79 130 1.0 3.0 0.83 0.86 0.86 97 1009.8
20160725214502 78 126 1.0 3.0 0.83 0.86 0.86 98 1009.9
20160725214302 78 120 1.0 3.0 0.83 0.86 0.86 98 1009.9
20160725214002 78 106 3.0 4.0 0.83 0.86 0.86 98 1009.7
20160725213603 78 105 0.0 4.0 0.83 0.86 0.86 98 1009.7
20160725213302 77 100 0.0 5.0 0.83 0.86 0.86 97 1009.9
20160725213203 76 107 1.0 5.0 0.83 0.86 0.86 98 1009.6
20160725213103 76 113 3.0 5.0 0.84 0.86 0.86 98 1009.7
20160725212903 76 135 1.0 7.0 0.84 0.86 0.86 97 1009.8
20160725212803 77 148 2.0 7.0 0.84 0.86 0.86 97 1009.7
20160725212702 77 147 1.0 10.0 0.84 0.86 0.86 97 1009.7
20160725212603 76 158 3.0 10.0 0.85 0.86 0.86 98 1009.6
20160725212503 76 192 3.0 10.0 0.85 0.86 0.86 98 1009.7
20160725212403 76 255 3.0 11.0 0.85 0.86 0.86 98 1009.7
20160725212213 75 286 1.0 11.0 0.85 0.86 0.86 99 1009.8
20160725212102 75 290 2.0 11.0 0.85 0.86 0.86 99 1009.9
20160725211902 74 296 1.0 11.0 0.85 0.86 0.86 99 1009.7
20160725211803 74 299 5.0 11.0 0.85 0.86 0.86 99 1009.6
20160725211703 74 299 5.0 11.0 0.86 0.86 0.86 99 1009.9
20160725211503 74 302 5.0 11.0 0.85 0.85 0.85 99 1010.2
20160725211303 74 282 9.0 11.0 0.71 0.71 0.71 98 1010.7
20160725211203 75 284 2.0 8.0 0.65 0.65 0.65 97 1010.8
20160725211102 75 299 1.0 8.0 0.60 0.60 0.60 97 1010.7
20160725211002 76 300 1.0 8.0 0.50 0.50 0.50 97 1010.7
20160725210703 76 217 2.0 8.0 0.43 0.43 0.43 96 1010.4
20160725210403 78 200 2.0 7.0 0.34 0.34 0.34 94 1010.6
20160725210102 78 174 1.0 7.0 0.21 0.21 0.21 95 1010.6
20160725210003 80 170 5.0 7.0 0.17 0.17 0.17 94 1010.6
20160725205903 80 162 1.0 5.0 0.14 0.14 0.14 94 1010.4
20160725205802 80 158 0.0 5.0 0.08 0.08 0.08 93 1010.0
20160725205702 81 159 1.0 5.0 0.07 0.07 0.07 91 1010.1
20160725205302 81 134 1.0 7.0 0.05 0.05 0.05 91 1010.1
20160725205202 82 130 0.0 7.0 0.04 0.04 0.04 91 1010.3
20160725205103 81 127 0.0 7.0 0.04 0.04 0.04 90 1010.1
20160725205002 81 126 1.0 7.0 0.04 0.04 0.04 90 1010.1
20160725204902 81 125 3.0 7.0 0.04 0.04 0.04 89 1010.0
20160725204502 81 106 5.0 5.0 0.04 0.04 0.04 88 1009.9
20160725204402 82 104 3.0 5.0 0.04 0.04 0.04 88 1009.9
20160725204303 82 104 2.0 5.0 0.04 0.04 0.04 86 1009.8
20160725204203 82 105 3.0 5.0 0.04 0.04 0.04 87 1009.7
20160725204102 82 104 3.0 5.0 0.04 0.04 0.04 88 1009.6
20160725204002 82 96 1.0 4.0 0.04 0.04 0.04 88 1009.8
20160725203902 82 99 1.0 4.0 0.04 0.04 0.04 87 1009.5
20160725203802 80 102 0.0 4.0 0.04 0.04 0.04 88 1009.6
20160725203703 79 106 2.0 4.0 0.04 0.04 0.04 88 1009.6
20160725203502 80 105 3.0 4.0 0.04 0.04 0.04 86 1009.5
20160725203402 79 107 0.0 4.0 0.04 0.04 0.04 85 1009.7
20160725203302 79 107 0.0 4.0 0.04 0.04 0.04 85 1009.8
20160725203103 79 107 0.0 6.0 0.02 0.02 0.02 86 1009.9
20160725202802 80 128 3.0 9.0 0.02 0.02 0.02 83 1010.1
20160725202703 79 134 1.0 9.0 0.02 0.02 0.02 83 1010.0
20160725202302 79 153 2.0 9.0 0.01 0.01 0.01 83 1009.9
20160725202202 80 155 2.0 9.0 0.01 0.01 0.01 82 1010.0
20160725202103 80 159 3.0 9.0 0.01 0.01 0.01 82 1009.8
20160725202003 80 161 4.0 9.0 0.01 0.01 0.01 79 1009.9
20160725201902 81 158 5.0 9.0 0.01 0.01 0.01 76 1009.9
20160725201702 83 162 3.0 7.0 0.00 0.00 0.00 73 1009.8
20160725201503 84 158 4.0 7.0 0.00 0.00 0.00 70 1009.9
20160725201202 85 169 3.0 7.0 0.00 0.00 0.00 64 1009.6
20160725201103 85 170 2.0 7.0 0.00 0.00 0.00 63 1009.5
20160725200902 85 176 4.0 5.0 0.00 0.00 0.00 65 1009.6
20160725200802 86 176 1.0 4.0 0.00 0.00 0.00 64 1009.7
20160725200702 91 177 1.0 4.0 0.00 0.00 0.00 56 1009.7
20160725200603 91 181 1.0 4.0 0.00 0.00 0.00 56 1009.5
20160725200503 91 182 1.0 4.0 0.00 0.00 0.00 56 1009.3
20160725200402 91 176 1.0 4.0 0.00 0.00 0.00 56 1009.5
20160725200302 91 179 1.0 4.0 0.00 0.00 0.00 56 1009.3
20160725200202 91 179 1.0 4.0 0.00 0.00 0.00 56 1009.5
20160725200003 91 182 1.0 5.0 0.00 0.00 0.00 56 1009.1
20160725195802 92 204 1.0 5.0 0.00 0.00 0.00 55 1009.0
20160725195603 93 170 0.0 6.0 0.00 0.00 0.00 59 1009.2
20160725195102 92 186 1.0 6.0 0.00 0.00 0.00 58 1009.2
20160725195002 92 178 2.0 6.0 0.00 0.00 0.00 56 1009.2
20160725194902 91 174 0.0 6.0 0.00 0.00 0.00 57 1009.3
20160725194803 90 168 1.0 6.0 0.00 0.00 0.00 56 1009.5
20160725194703 92 182 4.0 6.0 0.00 0.00 0.00 55 1009.3
20160725194602 92 201 1.0 6.0 0.00 0.00 0.00 55 1009.1
20160725194502 94 224 4.0 6.0 0.00 0.00 0.00 56 1009.2
20160725194303 94 217 1.0 6.0 0.00 0.00 0.00 54 1009.3
20160725194102 93 213 1.0 6.0 0.00 0.00 0.00 55 1009.3
20160725193802 92 149 2.0 6.0 0.00 0.00 0.00 55 1009.3
20160725193702 92 129 1.0 5.0 0.00 0.00 0.00 58 1009.5
20160725193602 91 128 1.0 9.0 0.00 0.00 0.00 56 1009.6
20160725193503 92 131 3.0 11.0 0.00 0.00 0.00 58 1009.7
20160725193403 91 128 1.0 11.0 0.00 0.00 0.00 57 1009.6
20160725193302 91 124 1.0 11.0 0.00 0.00 0.00 58 1009.6
20160725193102 91 130 2.0 11.0 0.00 0.00 0.00 54 1009.5
20160725192502 93 133 4.0 7.0 0.00 0.00 0.00 53 1009.8
20160725192402 92 137 2.0 7.0 0.00 0.00 0.00 54 1009.9
20160725192303 93 155 3.0 9.0 0.00 0.00 0.00 58 1009.9
20160725192203 93 160 2.0 9.0 0.00 0.00 0.00 56 1009.8
20160725192102 93 150 1.0 9.0 0.00 0.00 0.00 61 1009.9
20160725192002 93 152 1.0 9.0 0.00 0.00 0.00 61 1009.8
20160725191903 91 148 1.0 9.0 0.00 0.00 0.00 57 1009.8
20160725191702 91 152 2.0 9.0 0.00 0.00 0.00 56 1009.9
20160725191503 92 161 5.0 9.0 0.00 0.00 0.00 56 1009.8
20160725191202 93 169 1.0 7.0 0.00 0.00 0.00 58 1010.1
20160725191103 92 165 2.0 7.0 0.00 0.00 0.00 57 1009.9
20160725190602 91 207 2.0 7.0 0.00 0.00 0.00 61 1010.1
20160725190502 91 195 3.0 7.0 0.00 0.00 0.00 59 1010.1
20160725190403 91 189 3.0 7.0 0.00 0.00 0.00 58 1010.1
20160725190303 92 190 3.0 7.0 0.00 0.00 0.00 57 1009.9
20160725190202 93 195 3.0 7.0 0.00 0.00 0.00 60 1010.2
20160725190002 92 208 2.0 6.0 0.00 0.00 0.00 58 1009.9
20160725185903 91 195 1.0 6.0 0.00 0.00 0.00 59 1010.0
20160725185803 92 190 2.0 6.0 0.00 0.00 0.00 57 1010.2
20160725185602 91 167 1.0 6.0 0.00 0.00 0.00 60 1010.1
20160725185403 91 152 1.0 6.0 0.00 0.00 0.00 59 1010.0
20160725185303 91 144 1.0 6.0 0.00 0.00 0.00 61 1010.2
20160725184703 92 125 3.0 7.0 0.00 0.00 0.00 59 1010.1
20160725184402 92 142 2.0 7.0 0.00 0.00 0.00 61 1010.1
20160725184103 92 186 5.0 7.0 0.00 0.00 0.00 60 1010.3
20160725184002 92 195 3.0 7.0 0.00 0.00 0.00 62 1010.2
20160725183902 92 200 1.0 7.0 0.00 0.00 0.00 58 1010.1
20160725183802 93 219 2.0 7.0 0.00 0.00 0.00 57 1010.3
20160725183503 94 218 0.0 7.0 0.00 0.00 0.00 59 1010.2
20160725183402 93 209 2.0 7.0 0.00 0.00 0.00 58 1010.1
20160725183302 92 194 3.0 7.0 0.00 0.00 0.00 56 1010.1
20160725183203 92 187 3.0 7.0 0.00 0.00 0.00 57 1010.2
20160725183003 92 176 3.0 11.0 0.00 0.00 0.00 57 1010.3
20160725182802 91 152 3.0 11.0 0.00 0.00 0.00 57 1010.4
20160725182702 90 145 5.0 11.0 0.00 0.00 0.00 58 1010.2
20160725182603 90 146 4.0 11.0 0.00 0.00 0.00 57 1010.2
20160725182503 91 139 4.0 11.0 0.00 0.00 0.00 55 1010.3
20160725182402 91 137 3.0 11.0 0.00 0.00 0.00 56 1010.1
20160725182202 90 131 6.0 11.0 0.00 0.00 0.00 54 1010.2
20160725182103 90 129 6.0 11.0 0.00 0.00 0.00 53 1010.2
20160725182003 92 122 8.0 11.0 0.00 0.00 0.00 54 1010.3
20160725181802 92 131 3.0 7.0 0.00 0.00 0.00 56 1010.2
20160725181703 92 138 3.0 7.0 0.00 0.00 0.00 54 1010.4
20160725181602 92 135 3.0 7.0 0.00 0.00 0.00 53 1010.4
20160725181502 91 138 4.0 7.0 0.00 0.00 0.00 54 1010.3
20160725181403 92 142 3.0 7.0 0.00 0.00 0.00 55 1010.1
20160725181303 92 155 5.0 7.0 0.00 0.00 0.00 54 1010.1
20160725181203 92 161 3.0 6.0 0.00 0.00 0.00 56 1010.2
20160725181103 92 165 1.0 6.0 0.00 0.00 0.00 55 1010.3
20160725180803 92 177 2.0 4.0 0.00 0.00 0.00 62 1010.2
20160725180703 91 179 3.0 4.0 0.00 0.00 0.00 62 1010.3
20160725180602 91 185 3.0 5.0 0.00 0.00 0.00 62 1010.4
20160725180202 91 176 3.0 7.0 0.00 0.00 0.00 62 1010.4
20160725180102 91 173 3.0 7.0 0.00 0.00 0.00 62 1010.5
20160725180002 91 174 3.0 7.0 0.00 0.00 0.00 62 1010.4
20160725175803 90 175 2.0 7.0 0.00 0.00 0.00 62 1010.5
20160725175702 90 175 2.0 7.0 0.00 0.00 0.00 63 1010.5
20160725175402 89 148 3.0 11.0 0.00 0.00 0.00 60 1010.5
20160725175102 90 142 2.0 11.0 0.00 0.00 0.00 62 1010.3
20160725175002 90 137 1.0 11.0 0.00 0.00 0.00 61 1010.6
20160725174902 90 138 1.0 11.0 0.00 0.00 0.00 62 1010.5
20160725174802 90 138 0.0 11.0 0.00 0.00 0.00 63 1010.4
20160725174603 89 136 4.0 11.0 0.00 0.00 0.00 62 1010.6
20160725174003 90 156 5.0 9.0 0.00 0.00 0.00 59 1010.6
20160725173903 89 153 3.0 9.0 0.00 0.00 0.00 62 1010.8
20160725173702 90 160 1.0 9.0 0.00 0.00 0.00 63 1010.7
20160725173602 89 157 3.0 9.0 0.00 0.00 0.00 62 1011.0
20160725173503 89 158 4.0 9.0 0.00 0.00 0.00 62 1010.7
20160725173403 89 158 2.0 7.0 0.00 0.00 0.00 63 1010.8
20160725173202 89 168 2.0 9.0 0.00 0.00 0.00 63 1010.8
20160725172702 89 173 2.0 9.0 0.00 0.00 0.00 63 1010.9
20160725172403 89 165 3.0 9.0 0.00 0.00 0.00 60 1010.9
20160725172002 90 144 1.0 7.0 0.00 0.00 0.00 61 1010.8
20160725171903 89 144 1.0 9.0 0.00 0.00 0.00 62 1011.0
20160725171803 89 139 0.0 9.0 0.00 0.00 0.00 61 1011.1
20160725171602 89 134 3.0 9.0 0.00 0.00 0.00 59 1011.1
20160725171403 89 129 5.0 9.0 0.00 0.00 0.00 60 1010.8
20160725171302 89 125 3.0 9.0 0.00 0.00 0.00 62 1010.9
20160725171102 89 123 5.0 9.0 0.00 0.00 0.00 62 1010.8
20160725170803 89 118 4.0 9.0 0.00 0.00 0.00 60 1011.0
20160725170703 89 114 4.0 9.0 0.00 0.00 0.00 60 1010.8
20160725170602 90 116 4.0 6.0 0.00 0.00 0.00 58 1010.8
20160725170502 91 121 3.0 6.0 0.00 0.00 0.00 61 1011.1
20160725170402 91 123 3.0 6.0 0.00 0.00 0.00 60 1011.0
20160725170303 91 129 1.0 6.0 0.00 0.00 0.00 61 1011.1
20160725170203 91 136 2.0 6.0 0.00 0.00 0.00 57 1010.8
20160725170102 90 139 1.0 6.0 0.00 0.00 0.00 58 1011.0
20160725170002 90 143 3.0 6.0 0.00 0.00 0.00 58 1010.9
20160725165603 91 169 3.0 6.0 0.00 0.00 0.00 57 1011.4
20160725165502 91 178 1.0 6.0 0.00 0.00 0.00 56 1011.1
20160725165402 91 176 2.0 6.0 0.00 0.00 0.00 60 1011.0
20160725165302 91 167 3.0 6.0 0.00 0.00 0.00 58 1011.3
20160725165203 91 151 1.0 7.0 0.00 0.00 0.00 58 1011.3
20160725165102 91 149 1.0 8.0 0.00 0.00 0.00 58 1011.0
20160725164902 92 124 5.0 9.0 0.00 0.00 0.00 59 1011.1
20160725164803 91 118 3.0 9.0 0.00 0.00 0.00 59 1011.0
20160725164703 91 117 1.0 9.0 0.00 0.00 0.00 57 1011.2
20160725164603 91 119 1.0 9.0 0.00 0.00 0.00 61 1011.0
20160725164502 90 121 2.0 11.0 0.00 0.00 0.00 60 1011.1
20160725164402 91 123 3.0 11.0 0.00 0.00 0.00 61 1011.3
20160725164302 90 124 3.0 11.0 0.00 0.00 0.00 59 1011.1
20160725164203 90 119 5.0 11.0 0.00 0.00 0.00 59 1011.2
20160725164103 91 115 5.0 11.0 0.00 0.00 0.00 61 1011.0
20160725164002 90 118 3.0 11.0 0.00 0.00 0.00 60 1011.1
20160725163902 90 125 2.0 11.0 0.00 0.00 0.00 61 1011.2
20160725163802 90 129 2.0 11.0 0.00 0.00 0.00 59 1011.3
20160725163703 90 136 7.0 11.0 0.00 0.00 0.00 60 1011.4
20160725163602 90 134 4.0 11.0 0.00 0.00 0.00 59 1011.1
20160725163402 90 137 3.0 10.0 0.00 0.00 0.00 60 1011.1
20160725163302 91 138 5.0 11.0 0.00 0.00 0.00 62 1011.2
20160725163203 91 149 5.0 11.0 0.00 0.00 0.00 63 1011.4
20160725163102 90 152 1.0 11.0 0.00 0.00 0.00 62 1011.3
20160725163002 89 151 4.0 12.0 0.00 0.00 0.00 63 1011.3
20160725162802 89 154 5.0 12.0 0.00 0.00 0.00 62 1011.4
20160725162603 90 160 3.0 12.0 0.00 0.00 0.00 61 1011.2
20160725162502 89 162 5.0 12.0 0.00 0.00 0.00 63 1011.4
20160725162302 89 158 9.0 12.0 0.00 0.00 0.00 61 1011.4
20160725162002 90 144 6.0 12.0 0.00 0.00 0.00 63 1011.5
20160725161902 90 144 2.0 7.0 0.00 0.00 0.00 64 1011.5
20160725161802 89 139 1.0 7.0 0.00 0.00 0.00 64 1011.4
20160725161602 89 127 5.0 7.0 0.00 0.00 0.00 65 1011.5
20160725161103 87 129 1.0 6.0 0.00 0.00 0.00 72 1011.3
20160725161002 86 129 1.0 6.0 0.00 0.00 0.00 71 1011.2
20160725160802 86 134 3.0 6.0 0.00 0.00 0.00 73 1011.3
20160725160503 86 142 3.0 8.0 0.00 0.00 0.00 72 1011.2
20160725160402 86 143 3.0 8.0 0.00 0.00 0.00 72 1011.4
20160725160303 86 146 3.0 8.0 0.00 0.00 0.00 72 1011.4
20160725160202 86 142 3.0 9.0 0.00 0.00 0.00 72 1011.4
20160725160102 86 146 3.0 9.0 0.00 0.00 0.00 72 1011.4
20160725160003 86 143 3.0 9.0 0.00 0.00 0.00 72 1011.5
20160725155902 86 146 2.0 9.0 0.00 0.00 0.00 70 1011.4
20160725155802 86 146 4.0 9.0 0.00 0.00 0.00 70 1011.5
20160725155402 86 143 5.0 9.0 0.00 0.00 0.00 68 1011.4
20160725155303 86 145 5.0 9.0 0.00 0.00 0.00 68 1011.5
20160725155102 87 147 2.0 9.0 0.00 0.00 0.00 68 1011.3
20160725155002 87 148 2.0 9.0 0.00 0.00 0.00 67 1011.4
20160725154803 87 137 3.0 11.0 0.00 0.00 0.00 64 1011.4
20160725154402 88 133 2.0 11.0 0.00 0.00 0.00 65 1011.1
20160725154102 88 136 3.0 11.0 0.00 0.00 0.00 68 1011.2
20160725153702 89 158 4.0 8.0 0.00 0.00 0.00 71 1011.3
20160725153402 88 163 3.0 8.0 0.00 0.00 0.00 67 1011.2
20160725153302 88 163 3.0 8.0 0.00 0.00 0.00 67 1011.2
20160725153204 88 162 2.0 7.0 0.00 0.00 0.00 66 1011.3
20160725153003 89 152 3.0 7.0 0.00 0.00 0.00 64 1011.4
20160725152902 89 151 4.0 7.0 0.00 0.00 0.00 65 1011.3
20160725152802 89 162 3.0 7.0 0.00 0.00 0.00 64 1011.1
20160725152402 88 152 2.0 7.0 0.00 0.00 0.00 66 1011.2
20160725152202 88 138 2.0 7.0 0.00 0.00 0.00 67 1011.1
20160725152103 88 141 3.0 7.0 0.00 0.00 0.00 67 1011.2
20160725152002 88 137 3.0 7.0 0.00 0.00 0.00 66 1011.3
20160725151702 88 126 3.0 7.0 0.00 0.00 0.00 67 1011.3
20160725151602 89 123 5.0 7.0 0.00 0.00 0.00 67 1011.1
20160725151102 90 106 2.0 8.0 0.00 0.00 0.00 68 1011.3
20160725150502 88 134 5.0 15.0 0.00 0.00 0.00 67 1011.0
20160725150402 88 137 5.0 15.0 0.00 0.00 0.00 70 1011.1
20160725150203 87 135 5.0 15.0 0.00 0.00 0.00 69 1011.0
20160725150103 87 133 5.0 15.0 0.00 0.00 0.00 72 1011.1
20160725150002 87 129 4.0 15.0 0.00 0.00 0.00 71 1011.3
20160725145902 87 129 5.0 15.0 0.00 0.00 0.00 70 1011.0
20160725145702 87 136 3.0 15.0 0.00 0.00 0.00 70 1011.4
20160725145603 88 132 7.0 15.0 0.00 0.00 0.00 73 1011.2
20160725145503 87 128 5.0 10.0 0.00 0.00 0.00 71 1011.4
20160725145302 87 132 3.0 10.0 0.00 0.00 0.00 72 1011.3
20160725145203 87 136 5.0 11.0 0.00 0.00 0.00 72 1011.1
20160725145103 87 138 6.0 11.0 0.00 0.00 0.00 73 1011.0
20160725144802 88 134 5.0 11.0 0.00 0.00 0.00 73 1011.1
20160725144702 88 129 5.0 11.0 0.00 0.00 0.00 73 1010.9
20160725144103 88 122 4.0 8.0 0.00 0.00 0.00 74 1011.1
20160725143902 88 120 1.0 8.0 0.00 0.00 0.00 74 1011.0
20160725143802 87 121 3.0 10.0 0.00 0.00 0.00 75 1011.2
20160725143702 86 128 3.0 10.0 0.00 0.00 0.00 75 1011.0
20160725143603 87 131 4.0 10.0 0.00 0.00 0.00 76 1011.0
20160725143502 86 131 3.0 10.0 0.00 0.00 0.00 75 1011.0
20160725143302 86 126 4.0 10.0 0.00 0.00 0.00 75 1011.1
20160725143203 86 130 3.0 10.0 0.00 0.00 0.00 76 1011.0
20160725143103 86 135 5.0 10.0 0.00 0.00 0.00 75 1011.1
20160725143002 86 135 4.0 10.0 0.00 0.00 0.00 76 1011.1
20160725142903 86 133 5.0 10.0 0.00 0.00 0.00 76 1011.0
20160725142802 85 136 7.0 10.0 0.00 0.00 0.00 76 1011.2
20160725142502 85 127 5.0 10.0 0.00 0.00 0.00 75 1010.9
20160725142403 86 125 5.0 10.0 0.00 0.00 0.00 77 1011.0
20160725142002 85 122 1.0 10.0 0.00 0.00 0.00 77 1010.9
20160725141902 85 126 3.0 10.0 0.00 0.00 0.00 77 1011.0
20160725141802 86 126 6.0 10.0 0.00 0.00 0.00 77 1010.8
20160725141702 86 122 5.0 10.0 0.00 0.00 0.00 78 1010.8
20160725141502 85 112 3.0 10.0 0.00 0.00 0.00 76 1010.6
20160725141302 86 101 5.0 10.0 0.00 0.00 0.00 77 1010.7
20160725141102 86 94 2.0 10.0 0.00 0.00 0.00 77 1010.7
20160725140802 85 90 9.0 10.0 0.00 0.00 0.00 78 1010.8
20160725140602 85 87 4.0 10.0 0.00 0.00 0.00 79 1010.8
20160725140502 85 92 4.0 10.0 0.00 0.00 0.00 79 1010.8
20160725140102 85 118 4.0 10.0 0.00 0.00 0.00 79 1010.8
20160725135903 85 131 3.0 10.0 0.00 0.00 0.00 79 1010.9
20160725135703 85 139 4.0 9.0 0.00 0.00 0.00 80 1010.8
20160725135602 85 142 3.0 9.0 0.00 0.00 0.00 80 1010.9
20160725135502 85 139 3.0 9.0 0.00 0.00 0.00 80 1010.8
20160725135202 84 134 7.0 8.0 0.00 0.00 0.00 80 1010.7
20160725134602 84 111 3.0 7.0 0.00 0.00 0.00 81 1010.9
20160725134502 84 111 3.0 7.0 0.00 0.00 0.00 81 1010.8
20160725134302 84 121 3.0 7.0 0.00 0.00 0.00 83 1010.7
20160725134202 84 128 3.0 7.0 0.00 0.00 0.00 83 1010.9
20160725134003 84 139 3.0 7.0 0.00 0.00 0.00 85 1010.9
20160725133602 83 140 3.0 7.0 0.00 0.00 0.00 85 1011.0
20160725133503 83 142 4.0 7.0 0.00 0.00 0.00 85 1011.0
20160725133302 83 137 3.0 7.0 0.00 0.00 0.00 85 1010.8
20160725133202 83 130 5.0 7.0 0.00 0.00 0.00 85 1011.0
20160725133002 83 128 2.0 6.0 0.00 0.00 0.00 85 1011.1
20160725132703 83 131 3.0 7.0 0.00 0.00 0.00 85 1011.2
20160725132602 83 138 3.0 7.0 0.00 0.00 0.00 85 1011.3
20160725132302 82 130 3.0 7.0 0.00 0.00 0.00 86 1011.1
20160725132002 82 141 3.0 7.0 0.00 0.00 0.00 85 1011.1
20160725131902 82 141 3.0 7.0 0.00 0.00 0.00 85 1011.0
20160725131803 82 138 5.0 7.0 0.00 0.00 0.00 87 1010.9
20160725131602 82 130 3.0 7.0 0.00 0.00 0.00 87 1010.9
20160725131502 82 128 1.0 7.0 0.00 0.00 0.00 88 1011.1
20160725131203 82 117 5.0 7.0 0.00 0.00 0.00 87 1011.0
20160725131102 82 112 3.0 6.0 0.00 0.00 0.00 88 1010.9
20160725130902 82 104 2.0 6.0 0.00 0.00 0.00 89 1010.9
20160725130703 81 100 3.0 6.0 0.00 0.00 0.00 89 1011.0
20160725130502 81 104 4.0 5.0 0.00 0.00 0.00 90 1011.0
20160725130303 81 101 3.0 5.0 0.00 0.00 0.00 91 1011.0
20160725130202 81 105 3.0 5.0 0.00 0.00 0.00 91 1011.0
20160725130102 81 108 2.0 4.0 0.00 0.00 0.00 91 1011.3
20160725130002 80 117 2.0 4.0 0.00 0.00 0.00 92 1011.0
20160725125702 80 129 2.0 5.0 0.00 0.00 0.00 92 1011.0
20160725125602 80 131 1.0 5.0 0.00 0.00 0.00 92 1010.9
20160725125502 80 134 1.0 5.0 0.00 0.00 0.00 92 1011.0
20160725124802 80 137 3.0 5.0 0.00 0.00 0.00 92 1011.2
20160725124702 80 134 3.0 5.0 0.00 0.00 0.00 92 1011.1
20160725124602 79 130 2.0 5.0 0.00 0.00 0.00 92 1011.1
20160725124502 79 127 3.0 5.0 0.00 0.00 0.00 92 1011.1
20160725123803 79 108 1.0 5.0 0.00 0.00 0.00 93 1011.3
20160725123702 79 109 1.0 5.0 0.00 0.00 0.00 93 1011.1
20160725123602 79 115 1.0 5.0 0.00 0.00 0.00 92 1010.9
20160725123502 79 118 1.0 5.0 0.00 0.00 0.00 92 1011.3
20160725123403 79 117 2.0 5.0 0.00 0.00 0.00 92 1011.1
20160725123302 79 116 2.0 5.0 0.00 0.00 0.00 92 1011.3
20160725123102 79 120 1.0 5.0 0.00 0.00 0.00 92 1011.4
20160725123002 79 121 2.0 5.0 0.00 0.00 0.00 92 1011.3
20160725122902 79 118 3.0 5.0 0.00 0.00 0.00 92 1011.3
20160725122802 79 118 3.0 5.0 0.00 0.00 0.00 92 1011.0
20160725122702 79 121 3.0 5.0 0.00 0.00 0.00 92 1011.1
20160725122602 79 119 3.0 5.0 0.00 0.00 0.00 92 1011.3
20160725122502 79 121 2.0 3.0 0.00 0.00 0.00 92 1011.3
20160725122403 79 126 1.0 3.0 0.00 0.00 0.00 92 1011.3
20160725122302 79 131 1.0 3.0 0.00 0.00 0.00 92 1011.4
20160725122203 79 136 1.0 3.0 0.00 0.00 0.00 92 1011.3
20160725122102 79 148 1.0 3.0 0.00 0.00 0.00 92 1011.3
20160725121802 79 152 3.0 3.0 0.00 0.00 0.00 92 1011.4
20160725121604 79 128 1.0 3.0 0.00 0.00 0.00 93 1011.2
20160725121502 80 119 0.0 3.0 0.00 0.00 0.00 94 1011.3
20160725121404 80 115 0.0 3.0 0.00 0.00 0.00 94 1011.4
20160725121108 79 102 1.0 3.0 0.00 0.00 0.00 96 1011.5
20160725121004 78 97 1.0 3.0 0.00 0.00 0.00 96 1011.4
20160725120604 77 90 2.0 3.0 0.00 0.00 0.00 97 1011.2
20160725120202 77 96 2.0 3.0 0.00 0.00 0.00 97 1011.0
20160725120102 77 102 2.0 4.0 0.00 0.00 0.00 97 1011.2
20160725115802 77 110 2.0 4.0 0.00 0.00 0.00 97 1011.0
20160725115702 77 113 3.0 4.0 0.00 0.00 0.00 97 1011.1
20160725115612 77 113 1.0 4.0 0.00 0.00 0.00 97 1011.0
20160725115502 77 115 2.0 4.0 0.00 0.00 0.00 97 1011.0
20160725115402 77 124 1.0 4.0 0.00 0.00 0.00 97 1011.1
20160725115202 77 120 2.0 4.0 0.00 0.00 0.00 98 1011.1
20160725115102 77 115 3.0 4.0 0.00 0.00 0.00 98 1011.0
20160725114902 77 113 1.0 4.0 0.00 0.00 0.00 99 1010.9
20160725114805 77 108 2.0 4.0 0.00 0.00 0.00 99 1011.3
20160725114705 77 106 1.0 4.0 0.00 0.00 0.00 99 1011.2
20160725114603 77 106 1.0 4.0 0.00 0.00 0.00 99 1011.1
20160725114503 77 105 1.0 4.0 0.00 0.00 0.00 99 1011.3
20160725114202 76 95 1.0 4.0 0.00 0.00 0.00 99 1011.2
20160725114003 76 101 1.0 4.0 0.00 0.00 0.00 99 1011.3
20160725113702 76 117 1.0 4.0 0.00 0.00 0.00 99 1011.1
20160725113602 76 118 3.0 4.0 0.00 0.00 0.00 99 1011.1
20160725113502 76 119 3.0 4.0 0.00 0.00 0.00 99 1011.1
20160725113202 76 120 2.0 4.0 0.00 0.00 0.00 99 1011.4
20160725113102 76 118 2.0 4.0 0.00 0.00 0.00 99 1011.2
20160725113003 76 111 3.0 3.0 0.00 0.00 0.00 99 1011.1
20160725112902 76 104 1.0 3.0 0.00 0.00 0.00 99 1011.3
20160725112803 76 95 1.0 3.0 0.00 0.00 0.00 99 1011.1
20160725112702 76 90 1.0 3.0 0.00 0.00 0.00 99 1010.9
20160725112503 76 90 1.0 3.0 0.00 0.00 0.00 99 1010.9
20160725112102 76 99 1.0 3.0 0.00 0.00 0.00 99 1011.2
20160725112004 76 100 1.0 3.0 0.00 0.00 0.00 99 1010.9
20160725111903 76 102 1.0 3.0 0.00 0.00 0.00 99 1010.8
20160725111804 76 113 1.0 3.0 0.00 0.00 0.00 99 1011.0
20160725111702 76 125 1.0 3.0 0.00 0.00 0.00 99 1010.8
20160725111602 76 128 1.0 3.0 0.00 0.00 0.00 99 1011.0
20160725111402 76 136 1.0 3.0 0.00 0.00 0.00 99 1011.0
20160725111302 76 134 1.0 4.0 0.00 0.00 0.00 99 1010.8
20160725110902 76 118 1.0 4.0 0.00 0.00 0.00 99 1010.9
20160725110802 76 106 2.0 4.0 0.00 0.00 0.00 99 1010.8
20160725110702 76 99 2.0 4.0 0.00 0.00 0.00 99 1010.9
20160725110602 76 97 1.0 4.0 0.00 0.00 0.00 99 1010.9
20160725110503 76 93 2.0 4.0 0.00 0.00 0.00 99 1010.8
20160725110402 76 89 2.0 4.0 0.00 0.00 0.00 99 1010.7
20160725110303 76 87 3.0 4.0 0.00 0.00 0.00 99 1010.9
20160725110102 76 87 3.0 3.0 0.00 0.00 0.00 99 1010.8
20160725105902 76 86 2.0 3.0 0.00 0.00 0.00 99 1010.5
20160725105803 76 91 1.0 3.0 0.00 0.00 0.00 99 1010.6
20160725105602 76 93 1.0 3.0 0.00 0.00 0.00 99 1010.5
20160725105402 76 95 1.0 3.0 0.00 0.00 0.00 99 1010.7
20160725105102 76 99 1.0 4.0 0.00 0.00 0.00 99 1010.7
20160725105002 76 99 1.0 4.0 0.00 0.00 0.00 99 1010.5
20160725104702 76 96 1.0 4.0 0.00 0.00 0.00 99 1010.6
20160725104402 76 94 1.0 4.0 0.00 0.00 0.00 99 1010.8
20160725104103 76 94 1.0 3.0 0.00 0.00 0.00 99 1010.7
20160725103902 76 94 1.0 3.0 0.00 0.00 0.00 99 1010.5
20160725103803 76 96 1.0 3.0 0.00 0.00 0.00 99 1010.4
20160725103304 76 97 1.0 4.0 0.00 0.00 0.00 99 1010.4
20160725103202 76 98 3.0 4.0 0.00 0.00 0.00 99 1010.6
20160725102907 76 97 3.0 4.0 0.00 0.00 0.00 99 1010.5
20160725102702 76 94 1.0 4.0 0.00 0.00 0.00 99 1010.5
20160725102501 76 95 2.0 4.0 0.00 0.00 0.00 99 1010.5
20160725102304 76 101 3.0 5.0 0.00 0.00 0.00 99 1010.6
20160725102102 75 97 1.0 5.0 0.00 0.00 0.00 99 1010.6
20160725102002 76 97 2.0 5.0 0.00 0.00 0.00 99 1010.7
20160725101803 76 97 2.0 5.0 0.00 0.00 0.00 99 1010.4
20160725101702 76 96 1.0 5.0 0.00 0.00 0.00 99 1010.5
20160725101502 76 95 3.0 5.0 0.00 0.00 0.00 99 1010.4
20160725101402 76 90 1.0 5.0 0.00 0.00 0.00 99 1010.7
20160725101202 76 90 1.0 4.0 0.00 0.00 0.00 99 1010.6
20160725101003 76 90 2.0 3.0 0.00 0.00 0.00 99 1010.6
20160725100902 76 90 2.0 3.0 0.00 0.00 0.00 99 1010.7
20160725100802 76 90 1.0 2.0 0.00 0.00 0.00 99 1010.6
20160725100502 76 95 1.0 3.0 0.00 0.00 0.00 99 1010.6
20160725100302 76 101 1.0 3.0 0.00 0.00 0.00 99 1010.6
20160725100102 76 98 1.0 3.0 0.00 0.00 0.00 99 1010.6
20160725095902 76 108 1.0 3.0 0.00 0.00 0.00 99 1010.7
20160725095802 76 115 1.0 3.0 0.00 0.00 0.00 99 1010.6
20160725095702 76 118 1.0 3.0 0.00 0.00 0.00 99 1010.6
20160725095502 76 123 2.0 3.0 0.00 0.00 0.00 99 1010.8
20160725095402 76 120 1.0 3.0 0.00 0.00 0.00 99 1010.5
20160725095302 76 121 1.0 3.0 0.00 0.00 0.00 99 1010.6
20160725095204 76 135 3.0 3.0 0.00 0.00 0.00 99 1010.5
20160725094903 76 129 2.0 3.0 0.00 0.00 0.00 99 1010.7
20160725094606 76 109 1.0 3.0 0.00 0.00 0.00 99 1010.9
20160725094407 76 101 2.0 3.0 0.00 0.00 0.00 99 1010.6
20160725094206 76 95 1.0 3.0 0.00 0.00 0.00 99 1010.7
20160725094107 76 94 2.0 3.0 0.00 0.00 0.00 99 1010.5
20160725094006 76 90 1.0 3.0 0.00 0.00 0.00 99 1010.6
20160725093909 76 90 1.0 3.0 0.00 0.00 0.00 99 1010.7
20160725093608 76 90 1.0 3.0 0.00 0.00 0.00 99 1010.5
20160725093512 76 90 1.0 3.0 0.00 0.00 0.00 99 1010.6
20160725093407 76 90 1.0 3.0 0.00 0.00 0.00 99 1010.4
20160725093310 76 90 1.0 3.0 0.00 0.00 0.00 99 1010.5
20160725092909 76 92 1.0 3.0 0.00 0.00 0.00 99 1010.7
20160725092814 76 97 1.0 3.0 0.00 0.00 0.00 99 1010.4
20160725092213 76 155 1.0 3.0 0.00 0.00 0.00 99 1010.6
20160725091916 76 155 1.0 3.0 0.00 0.00 0.00 99 1010.6
20160725091810 76 154 1.0 5.0 0.00 0.00 0.00 98 1010.7
20160725091608 76 146 2.0 5.0 0.00 0.00 0.00 98 1010.9
20160725091513 77 143 1.0 5.0 0.00 0.00 0.00 98 1010.7
20160725091104 77 136 1.0 5.0 0.00 0.00 0.00 98 1010.6
20160725091002 77 143 1.0 5.0 0.00 0.00 0.00 97 1010.8
20160725090412 77 122 3.0 4.0 0.00 0.00 0.00 96 1010.8
20160725090312 77 124 3.0 4.0 0.00 0.00 0.00 96 1010.8
20160725090009 77 103 3.0 4.0 0.00 0.00 0.00 96 1010.7
20160725085908 77 101 2.0 4.0 0.00 0.00 0.00 97 1010.6
20160725085809 77 100 2.0 4.0 0.00 0.00 0.00 97 1010.8
20160725085502 77 103 3.0 4.0 0.00 0.00 0.00 97 1010.7
20160725085317 77 116 1.0 4.0 0.00 0.00 0.00 97 1010.6
20160725085214 77 121 1.0 4.0 0.00 0.00 0.00 97 1010.9
20160725085011 77 125 2.0 4.0 0.00 0.00 0.00 97 1010.9
20160725084914 77 120 1.0 4.0 0.00 0.00 0.00 97 1010.9
20160725084712 77 129 1.0 4.0 0.00 0.00 0.00 97 1010.6
20160725084514 77 132 2.0 4.0 0.00 0.00 0.00 97 1010.9
20160725084218 77 130 0.0 3.0 0.00 0.00 0.00 97 1010.9
20160725084012 77 127 0.0 3.0 0.00 0.00 0.00 97 1010.7
20160725083814 77 127 2.0 3.0 0.00 0.00 0.00 97 1010.7
20160725083514 77 126 2.0 3.0 0.00 0.00 0.00 97 1010.8
20160725083309 77 119 2.0 3.0 0.00 0.00 0.00 97 1011.0
20160725083002 77 117 2.0 3.0 0.00 0.00 0.00 97 1011.0
20160725082802 77 119 2.0 3.0 0.00 0.00 0.00 97 1010.8
20160725082602 77 126 1.0 3.0 0.00 0.00 0.00 97 1010.8
20160725082502 77 119 1.0 3.0 0.00 0.00 0.00 97 1010.8
20160725082402 77 120 1.0 3.0 0.00 0.00 0.00 97 1011.1
20160725082304 77 124 1.0 3.0 0.00 0.00 0.00 97 1011.1
20160725082202 77 128 1.0 3.0 0.00 0.00 0.00 97 1010.8
20160725082101 77 126 1.0 3.0 0.00 0.00 0.00 97 1010.8
20160725081902 77 137 2.0 3.0 0.00 0.00 0.00 97 1010.9
20160725081702 77 140 1.0 3.0 0.00 0.00 0.00 97 1011.0
20160725081602 77 148 1.0 3.0 0.00 0.00 0.00 97 1011.2
20160725081502 77 157 1.0 3.0 0.00 0.00 0.00 97 1011.1
20160725081202 77 170 1.0 3.0 0.00 0.00 0.00 97 1011.0
20160725081101 77 176 2.0 3.0 0.00 0.00 0.00 97 1011.1
20160725081002 77 177 2.0 3.0 0.00 0.00 0.00 97 1011.2
20160725080702 77 174 2.0 3.0 0.00 0.00 0.00 97 1011.1
20160725080602 77 168 2.0 3.0 0.00 0.00 0.00 97 1011.3
20160725080202 77 153 2.0 3.0 0.00 0.00 0.00 97 1011.3
20160725075902 77 144 1.0 3.0 0.00 0.00 0.00 97 1011.1
20160725075802 77 142 2.0 3.0 0.00 0.00 0.00 97 1011.0
20160725075305 77 131 2.0 3.0 0.00 0.00 0.00 97 1011.1
20160725075202 77 124 2.0 3.0 0.00 0.00 0.00 97 1011.1
20160725075102 77 119 2.0 3.0 0.00 0.00 0.00 97 1011.0
20160725075001 77 109 1.0 3.0 0.00 0.00 0.00 97 1011.2
20160725074902 77 108 0.0 3.0 0.00 0.00 0.00 97 1011.2
20160725074402 77 118 1.0 3.0 0.00 0.00 0.00 97 1010.9
20160725074203 77 131 1.0 3.0 0.00 0.00 0.00 97 1011.1
20160725074102 77 126 1.0 3.0 0.00 0.00 0.00 97 1011.1
20160725074002 77 126 1.0 3.0 0.00 0.00 0.00 97 1011.1
20160725073902 77 127 1.0 3.0 0.00 0.00 0.00 97 1011.0
20160725073702 77 124 1.0 3.0 0.00 0.00 0.00 97 1011.1
20160725073501 77 129 1.0 3.0 0.00 0.00 0.00 97 1011.0
20160725073401 77 127 2.0 3.0 0.00 0.00 0.00 97 1011.1
20160725073302 77 122 2.0 3.0 0.00 0.00 0.00 97 1011.0
20160725073102 77 124 3.0 3.0 0.00 0.00 0.00 97 1011.1
20160725072802 77 122 2.0 3.0 0.00 0.00 0.00 96 1011.0
20160725072502 77 111 1.0 3.0 0.00 0.00 0.00 96 1010.9
20160725072402 77 110 1.0 3.0 0.00 0.00 0.00 96 1011.0
20160725072302 77 107 1.0 3.0 0.00 0.00 0.00 96 1010.9
20160725072202 77 99 1.0 2.0 0.00 0.00 0.00 96 1011.1
20160725072102 77 94 1.0 2.0 0.00 0.00 0.00 95 1011.0
20160725071902 77 90 1.0 3.0 0.00 0.00 0.00 95 1010.8
20160725071801 77 90 1.0 3.0 0.00 0.00 0.00 95 1010.8
20160725071703 77 90 0.0 3.0 0.00 0.00 0.00 95 1011.2
20160725071602 77 90 0.0 3.0 0.00 0.00 0.00 95 1010.9
20160725071503 78 92 0.0 3.0 0.00 0.00 0.00 95 1010.8
20160725071301 78 95 0.0 3.0 0.00 0.00 0.00 95 1011.1
20160725071102 78 95 1.0 3.0 0.00 0.00 0.00 95 1011.1
20160725070801 78 98 0.0 3.0 0.00 0.00 0.00 95 1011.1
20160725070702 78 99 1.0 3.0 0.00 0.00 0.00 95 1010.9
20160725070602 78 101 1.0 3.0 0.00 0.00 0.00 96 1011.0
20160725070402 78 92 1.0 2.0 0.00 0.00 0.00 96 1011.0
20160725070101 78 127 0.0 2.0 0.00 0.00 0.00 96 1011.0
20160725070002 78 154 0.0 2.0 0.00 0.00 0.00 96 1011.1
20160725065802 78 165 0.0 2.0 0.00 0.00 0.00 96 1011.1
20160725065602 78 163 0.0 2.0 0.00 0.00 0.00 96 1011.2
20160725065402 77 166 1.0 2.0 0.00 0.00 0.00 95 1011.0
20160725065302 77 171 0.0 2.0 0.00 0.00 0.00 96 1011.1
20160725065101 78 173 1.0 2.0 0.00 0.00 0.00 95 1011.1
20160725065002 77 173 0.0 2.0 0.00 0.00 0.00 95 1011.4
20160725064802 77 172 0.0 3.0 0.00 0.00 0.00 95 1011.0
20160725064601 77 162 0.0 3.0 0.00 0.00 0.00 95 1011.2
20160725064402 77 148 0.0 3.0 0.00 0.00 0.00 94 1011.2
20160725064302 78 145 0.0 3.0 0.00 0.00 0.00 94 1011.0
20160725064202 78 142 0.0 3.0 0.00 0.00 0.00 94 1011.0
20160725064102 78 136 1.0 3.0 0.00 0.00 0.00 94 1010.9
20160725064002 78 132 0.0 3.0 0.00 0.00 0.00 95 1011.1
20160725063701 78 109 1.0 3.0 0.00 0.00 0.00 95 1010.9
20160725063601 78 113 1.0 3.0 0.00 0.00 0.00 94 1011.0
20160725063402 78 121 1.0 2.0 0.00 0.00 0.00 94 1010.8
20160725063101 78 124 0.0 2.0 0.00 0.00 0.00 94 1010.8
20160725062702 78 123 0.0 2.0 0.00 0.00 0.00 94 1010.8
20160725062501 78 123 1.0 2.0 0.00 0.00 0.00 94 1011.0
20160725062402 78 124 0.0 3.0 0.00 0.00 0.00 94 1010.8
20160725062302 78 125 0.0 3.0 0.00 0.00 0.00 94 1010.9
20160725062202 78 125 0.0 3.0 0.00 0.00 0.00 94 1010.8
20160725062102 78 123 1.0 3.0 0.00 0.00 0.00 94 1011.0
20160725062002 78 127 1.0 3.0 0.00 0.00 0.00 94 1011.0
20160725061902 78 128 0.0 3.0 0.00 0.00 0.00 94 1010.8
20160725061302 78 98 1.0 3.0 0.00 0.00 0.00 94 1010.8
20160725061002 78 90 0.0 1.0 0.00 0.00 0.00 94 1010.9
20160725060902 78 90 0.0 1.0 0.00 0.00 0.00 94 1010.9
20160725060602 78 90 0.0 2.0 0.00 0.00 0.00 94 1010.8
20160725060302 78 90 0.0 2.0 0.00 0.00 0.00 94 1010.9
20160725060202 78 90 0.0 2.0 0.00 0.00 0.00 94 1010.9
20160725060102 78 90 0.0 2.0 0.00 0.00 0.00 94 1010.8
20160725055905 78 90 0.0 2.0 0.00 0.00 0.00 94 1011.0
20160725055506 78 90 0.0 2.0 0.00 0.00 0.00 94 1011.0
20160725055107 78 94 0.0 2.0 0.00 0.00 0.00 93 1010.6
20160725055007 78 94 0.0 2.0 0.00 0.00 0.00 93 1010.8
20160725054913 78 95 0.0 2.0 0.00 0.00 0.00 93 1010.6
20160725054714 78 97 0.0 2.0 0.00 0.00 0.00 93 1010.8
20160725054413 79 105 1.0 2.0 0.00 0.00 0.00 92 1010.6
20160725054311 79 125 1.0 2.0 0.00 0.00 0.00 93 1010.6
20160725054111 79 0 0.0 0.0 0.00 0.00 0.00 93 1010.7
20160725054006 79 0 0.0 0.0 0.00 0.00 0.00 93 1010.5
20160725053907 79 0 0.0 0.0 0.00 0.00 0.00 93 1010.6
20160725053511 78 0 0.0 0.0 0.00 0.00 0.00 93 1010.5
20160725053412 78 0 0.0 0.0 0.00 0.00 0.00 92 1010.6
20160725053306 78 0 0.0 0.0 0.00 0.00 0.00 92 1010.6
20160725053212 78 0 0.0 0.0 0.00 0.00 0.00 92 1010.4
20160725053116 78 0 0.0 0.0 0.00 0.00 0.00 91 1010.5
20160725052902 78 0 0.0 0.0 0.00 0.00 0.00 91 1010.5
20160725052701 79 46 0.0 1.0 0.00 0.00 0.00 89 1010.5
20160725052502 79 45 0.0 1.0 0.00 0.00 0.00 89 1010.6
20160725052402 79 45 0.0 1.0 0.00 0.00 0.00 89 1010.7
20160725052302 79 45 0.0 1.0 0.00 0.00 0.00 89 1010.6
20160725051902 80 45 0.0 1.0 0.00 0.00 0.00 89 1010.5
20160725051802 80 45 0.0 1.0 0.00 0.00 0.00 89 1010.6
20160725051701 79 45 0.0 1.0 0.00 0.00 0.00 89 1010.5
20160725051302 79 0 0.0 0.0 0.00 0.00 0.00 90 1010.5
20160725051202 79 0 0.0 0.0 0.00 0.00 0.00 90 1010.5
20160725051101 79 90 0.0 1.0 0.00 0.00 0.00 90 1010.6
20160725050902 79 90 0.0 1.0 0.00 0.00 0.00 90 1010.3
20160725050702 79 90 0.0 1.0 0.00 0.00 0.00 89 1010.4
20160725050515 79 90 0.0 1.0 0.00 0.00 0.00 89 1010.3
20160725050312 79 90 0.0 1.0 0.00 0.00 0.00 89 1010.4
20160725050202 79 90 0.0 1.0 0.00 0.00 0.00 89 1010.4
20160725050114 79 90 0.0 1.0 0.00 0.00 0.00 89 1010.5
20160725045612 79 90 0.0 1.0 0.00 0.00 0.00 89 1010.3
20160725045211 79 90 0.0 1.0 0.00 0.00 0.00 88 1010.3
20160725045112 79 90 0.0 1.0 0.00 0.00 0.00 88 1010.2
20160725044907 79 90 0.0 1.0 0.00 0.00 0.00 88 1010.4
20160725044513 80 90 0.0 1.0 0.00 0.00 0.00 88 1010.3
20160725044213 80 0 0.0 0.0 0.00 0.00 0.00 88 1010.1
20160725043417 80 0 0.0 0.0 0.00 0.00 0.00 87 1010.0